Regional Weather Roundup
Issued by NWS

Home | Current Version | Previous Version | Text Only | Print | Product List | Glossary On
Versions: 1 2 3 4 5 6 7 8 9 10 11 12 13 14 15 16 17 18 19 20 21 22 23 24 25 26 27 28 29 30 31 32 33 34 35 36 37 38 39 40 41 42 43 44 45 46 47 48 49 50
131
ASUS42 KKEY 270410
RWRKEY

FLORIDA REGIONAL WEATHER ROUNDUP FOR THE FLORIDA KEYS
NATIONAL WEATHER SERVICE KEY WEST FLORIDA
1200 AM EDT THU APR 27 2017

...SOUTH FLORIDA AND THE KEYS...

CITY           SKY/WX    TMP DP  RH WIND       PRES   REMARKS
FORT MYERS     CLEAR     73  72  96 SE3       29.91S
SW REGIONAL AP CLEAR     72  69  90 SE5       29.92R
NAPLES         CLEAR     74  71  91 SE5       29.92R
MIAMI          PTCLDY    78  71  79 SE7       29.94R
WEST KENDALL   CLEAR     77  71  82 SE6       29.94R
HOMESTEAD      CLEAR     76  75  98 E5        29.93R
MARATHON       MOCLDY    80  76  87 SE9       29.92S
BOCA CHICA NAS CLEAR    N/A N/A N/A E10       29.92S
KEY WEST INTL  CLEAR     79  76  90 E12       29.93R

...INTERNATIONAL WEATHER...

CITY           SKY/WX    TMP DP  RH WIND       PRES   REMARKS
NASSAU BAHAMAS PTCLDY    82  72  69 E8        29.97
CANCUN MEXICO  PTCLDY    81  77  89 E15       29.81R
COZUMEL MEXICO PTCLDY    81  75  83 SE12      29.79R

ADJACENT COASTAL WATERS...

STATION/POSITION TIME  SKY/WX   TEMP    WIND        PRES    WAVE
                                AIR SEA DIR/SP/G            HT/PER
                 (UTC)          (F)     (DEG/KT/KT) (MB)    (FT/S)
PULASKI SHOAL LI 0400            78     120/ 16/ 17 1012.5R
SAND KEY         0350            79     130/ 12/ 14 1013.7R
LONG KEY         0300            79 80  130/ 12/ 13 1013.4R
MOLASSES REEF    0300            78 78  100/  9/ 12 1013.7R
FOWEY ROCKS      0300            78 77  110/ 16/ 17 1013.9R
Buoy 42097       0400                                 N/A     2/ 4

$$




USA.gov is the U.S. government's official web portal to all federal, state and local government web resources and services.